Wind_Speed
10 9 8 9 10 10 11 11 11 11 10 9 8 7 6 5 4 3 3 3 3 3 4 4 4 4 5 6 6 6 6 6 6 5 4 4 4 4 5 4 4 4 4 4 4 4 5 5 5 5 5 5 6 6 6 7 7 6 6 7 7 8 8 8 9 10 11 11 11 12 12 12 12 13 13 13 12 11 11 11 10 10 10 11 11
9 8 9 9 9 10 10 11 10 10 9 8 7 5 4 3 3 3 3 4 4 4 4 4 4 4 5 5 6 6 6 7 7 6 5 4 5 5 5 5 5 5 5 5 5 5 5 5 6 6 6 6 6 7 6 7 7 7 7 8 8 9 9 9 10 11 12 12 12 12 12 12 13 13 13 13 12 11 11 11 10 10 11 11 11
8 9 9 10 9 9 9 9 8 8 7 7 6 4 3 3 3 3 4 4 5 5 5 5 5 5 4 4 5 6 6 6 7 7 6 5 5 5 5 6 6 6 6 6 7 7 6 6 6 6 7 7 7 7 7 7 8 8 8 8 9 9 10 11 11 12 12 13 13 12 13 13 13 13 12 12 12 11 11 11 11 11 11 11 11
9 9 9 9 8 8 8 7 6 6 6 5 5 4 3 3 3 3 3 5 6 6 6 6 6 5 5 4 5 5 5 6 6 7 7 6 6 6 6 6 5 6 6 6 7 7 8 8 8 8 8 8 7 8 8 8 9 9 9 9 10 10 11 11 12 12 13 13 13 13 13 13 13 13 13 12 12 12 12 12 12 12 12 12 12
8 8 7 7 7 7 7 6 6 5 5 4 4 3 3 3 3 3 3 5 6 7 7 7 6 6 5 5 5 5 6 6 6 6 6 7 6 6 6 6 6 6 6 7 7 8 9 9 10 10 10 9 9 9 9 9 10 10 10 10 11 11 12 12 12 13 13 13 13 13 14 13 14 14 14 14 13 13 13 13 13 14 14 14 14
6 5 5 5 5 5 6 6 5 5 4 3 3 2 2 2 2 2 4 5 6 7 7 7 7 8 7 7 7 7 7 7 7 7 6 6 7 6 6 6 7 7 8 8 9 9 10 10 10 10 11 10 10 10 10 10 11 11 12 12 12 13 12 13 13 13 13 14 14 14 14 14 14 15 15 15 14 14 15 15 15 15 16 16 16
4 4 4 4 4 5 5 5 5 4 3 3 2 2 2 3 2 2 4 5 6 7 7 7 8 9 9 8 8 8 8 9 8 8 7 7 7 7 7 7 8 9 9 9 10 10 10 10 11 11 11 11 11 11 11 11 11 11 12 13 13 14 14 14 14 14 14 14 14 15 15 15 15 16 16 16 15 16 16 16 16 16 16 16 17
5 5 4 4 4 5 5 5 5 5 4 2 2 2 3 3 3 3 4 5 6 6 7 8 8 9 9 9 9 9 9 9 9 8 8 8 7 7 7 8 8 9 10 9 9 9 10 10 10 10 10 10 10 11 11 11 11 12 13 13 14 14 15 15 15 15 15 15 15 15 15 15 16 17 17 16 15 16 16 15 15 15 16 15 16
5 5 5 5 5 5 6 6 6 5 4 2 2 3 3 3 3 4 5 5 6 7 8 8 8 9 9 8 9 9 8 8 8 8 8 8 8 8 8 8 8 9 10 10 10 9 9 9 10 10 10 10 10 10 11 11 12 12 13 14 14 15 15 15 15 15 16 16 16 16 16 16 16 16 15 14 14 14 15 15 14 14 14 14 14
5 5 6 5 6 6 6 6 6 4 4 3 3 3 3 2 3 4 5 6 6 7 8 8 8 8 8 8 8 7 7 7 8 8 8 8 8 9 9 9 9 9 10 10 10 10 10 10 10 10 10 10 11 11 11 11 12 13 14 15 16 16 16 16 15 16 16 16 16 16 16 16 15 14 13 12 13 14 15 14 14 13 12 13 14
6 6 6 6 6 6 7 7 5 3 3 4 4 3 3 2 2 3 5 6 6 7 8 8 8 8 8 7 7 8 8 8 8 9 9 9 9 10 9 9 9 10 10 10 11 11 10 10 10 10 11 10 11 11 11 12 13 14 15 17 18 18 16 15 15 15 15 16 16 16 14 13 12 12 12 13 14 15 15 14 13 12 12 12 13
7 6 6 5 5 6 7 6 4 3 3 3 3 3 3 2 2 3 5 5 5 6 8 8 9 8 6 6 7 8 8 8 8 9 9 9 10 10 9 9 9 9 10 11 11 11 11 10 11 11 11 11 10 10 11 12 13 15 17 18 18 16 14 13 13 13 13 14 14 13 12 12 12 13 14 15 15 15 14 13 12 12 11 12 12
7 7 6 6 5 6 5 4 4 3 2 2 2 2 2 2 2 4 5 5 5 6 7 7 8 8 6 7 7 6 7 7 7 8 8 8 9 9 9 9 8 9 10 11 11 11 10 10 10 11 11 11 10 9 10 11 13 15 17 17 16 14 13 12 12 12 12 12 12 12 12 12 13 14 15 16 15 14 13 13 12 12 12 12 12
7 7 7 6 5 5 4 4 3 3 2 1 1 2 1 1 2 3 4 5 5 6 7 6 6 8 6 7 7 6 4 4 7 8 8 8 7 8 8 7 7 8 10 10 10 10 10 10 10 10 10 9 9 9 10 12 13 15 15 15 15 14 12 12 11 11 11 11 11 12 13 14 15 16 16 16 14 13 13 13 13 14 14 13 13
7 7 7 6 5 4 4 4 3 3 2 1 1 1 1 1 1 3 3 4 5 6 7 5 6 7 6 4 4 5 4 6 11 9 5 6 6 7 7 7 7 8 9 9 8 8 8 9 9 9 8 8 8 9 11 12 14 14 14 14 16 14 12 12 12 12 12 12 12 14 15 16 16 16 16 15 14 14 14 15 16 17 16 16 16
8 7 7 6 6 4 3 3 3 3 3 2 1 1 1 1 1 3 4 5 6 6 6 5 6 6 4 1 1 2 1 6 12 9 6 4 5 6 7 7 7 7 8 8 7 7 7 7 7 7 7 7 8 9 10 13 14 13 13 14 16 15 12 13 13 13 13 13 14 15 16 17 17 16 16 15 15 16 17 18 18 19 19 19 19
9 8 7 6 6 5 3 3 3 3 3 2 2 2 2 2 1 3 5 6 6 7 6 5 5 4 3 1 1 1 0 5 9 7 9 7 3 4 5 6 6 6 7 7 6 6 6 7 7 7 7 7 8 9 10 13 13 13 13 14 16 16 14 14 14 14 14 14 15 16 16 17 17 16 16 16 17 18 19 19 19 19 20 22 22
10 8 7 6 5 5 4 4 4 4 4 3 2 3 3 2 0 3 4 5 6 7 6 5 4 4 4 3 2 2 4 6 4 3 8 9 7 7 5 5 5 5 6 6 6 6 6 7 7 7 8 8 9 9 10 12 12 12 13 14 15 16 16 16 16 15 15 15 16 17 17 18 17 17 17 17 18 19 19 19 19 20 22 23 23
9 8 6 5 5 5 4 5 5 5 5 3 3 4 4 3 0 2 3 4 6 7 6 5 4 5 6 4 4 3 4 3 1 1 4 6 9 12 11 8 6 5 5 6 6 7 7 7 7 8 9 9 9 9 10 11 11 11 12 13 14 16 16 16 17 17 17 17 17 18 18 18 18 18 17 18 19 19 19 20 20 21 22 24 23
8 7 6 5 5 5 5 6 6 6 6 4 3 4 5 3 1 1 2 3 4 6 6 6 6 7 7 7 6 4 2 2 3 3 1 1 6 9 12 11 7 5 5 5 7 7 8 7 7 8 9 10 10 9 9 10 11 11 10 11 13 15 15 15 16 17 17 19 19 19 19 19 18 18 18 18 19 19 20 20 21 22 23 24 24
7 6 5 5 5 5 6 6 6 6 7 6 5 5 6 4 2 1 1 1 3 4 4 5 7 8 8 8 8 7 6 4 6 6 0 1 3 4 9 12 9 6 5 5 7 8 8 8 7 8 9 10 11 9 8 9 10 10 9 10 12 13 14 14 14 15 16 18 19 20 20 19 19 18 18 18 18 19 20 21 22 22 23 24 24
7 6 5 5 5 6 6 6 6 6 7 7 6 6 6 5 4 3 2 1 1 2 3 4 6 7 8 9 9 8 7 5 8 8 2 1 1 3 7 8 7 8 7 6 8 8 8 7 7 8 8 10 10 9 8 8 9 9 7 9 10 12 13 13 13 14 15 16 17 19 19 20 19 18 18 17 17 18 20 21 22 23 23 23 24
8 6 6 5 5 5 6 6 6 7 8 7 6 6 6 6 5 4 3 2 1 2 2 3 4 5 6 8 9 9 8 7 9 10 6 2 2 4 6 6 6 8 8 8 8 8 7 6 7 8 9 9 8 7 8 8 8 7 7 8 9 11 12 13 13 13 14 15 16 17 18 19 19 18 18 17 17 17 18 20 22 23 23 23 24
9 8 7 6 5 6 6 6 7 7 7 7 7 6 6 6 6 5 5 4 2 3 4 3 3 3 4 6 7 7 8 8 9 11 9 4 2 4 6 6 5 7 10 9 8 7 7 7 7 8 9 7 5 6 7 7 6 6 7 8 9 10 12 13 14 14 14 14 16 17 17 17 18 18 18 17 17 17 17 19 20 22 23 23 24
12 10 8 7 6 6 7 7 7 8 8 8 7 7 6 7 7 6 6 5 5 5 5 5 4 3 2 3 4 5 6 7 9 10 10 7 4 4 5 5 4 6 9 9 8 7 6 6 7 8 8 5 3 5 6 6 6 6 7 8 9 11 12 13 14 15 15 14 15 16 16 16 16 17 17 17 17 16 16 17 19 21 22 23 24
13 11 9 8 7 6 7 8 8 8 8 8 8 7 7 7 8 8 7 6 6 6 6 6 5 5 3 1 2 3 4 6 7 7 9 8 6 4 5 6 4 5 7 7 8 8 7 7 8 7 6 3 2 5 5 6 7 7 9 10 11 12 12 13 14 15 15 15 15 15 16 16 15 15 16 16 16 16 16 16 18 19 21 22 23
11 11 9 8 8 7 8 9 8 8 9 9 9 8 8 8 9 9 8 7 7 6 6 6 6 5 5 4 2 2 3 4 5 5 6 6 6 5 6 5 3 4 5 5 6 6 8 9 8 6 4 3 4 5 7 8 8 9 10 11 12 12 12 13 13 14 14 15 15 15 15 16 15 15 15 16 16 16 16 16 17 18 20 21 23
10 10 10 9 8 8 9 9 9 9 9 9 9 9 9 9 9 9 8 7 7 7 6 6 5 5 5 5 4 3 2 3 4 4 4 5 5 5 6 5 3 3 3 3 3 4 6 9 7 6 5 5 6 7 8 9 9 10 11 11 12 12 12 12 12 13 14 15 16 16 16 16 15 15 15 15 16 16 16 16 16 17 19 20 22
11 10 10 10 9 9 9 9 9 10 10 10 10 10 10 10 10 10 9 9 9 8 7 6 5 5 5 5 6 5 3 2 3 3 3 3 5 5 5 4 2 2 1 1 3 3 5 8 7 6 7 7 7 7 8 9 10 11 11 12 12 12 12 11 11 13 14 15 16 17 17 16 15 15 14 14 15 16 17 17 17 17 18 19 21
12 11 11 11 11 11 10 10 10 10 10 11 11 11 11 11 11 11 10 9 9 9 8 8 7 6 6 6 6 6 5 3 2 2 2 3 4 5 4 3 3 2 2 2 2 2 5 8 9 9 10 9 8 8 8 9 10 11 12 13 14 14 13 13 13 15 16 16 17 17 17 16 15 15 14 14 14 16 17 17 17 17 18 18 19
13 13 12 12 12 12 11 11 12 12 12 11 11 12 12 13 13 12 11 10 11 11 10 9 9 8 8 7 7 7 6 5 4 3 2 3 4 5 5 4 4 3 4 3 1 2 6 10 12 12 12 11 10 9 9 9 10 11 12 14 15 16 16 16 17 17 17 16 16 16 16 15 15 15 15 14 14 15 16 18 18 17 18 18 19
13 13 13 13 13 13 12 12 12 13 13 12 12 12 13 14 14 13 12 12 13 13 12 12 10 9 10 9 7 7 6 6 5 5 4 4 5 6 6 6 5 4 4 4 4 6 9 11 12 12 12 12 11 9 9 10 11 11 13 14 15 16 17 17 17 16 16 15 15 15 16 16 15 15 15 15 15 15 16 17 18 18 18 18 18
13 13 13 13 13 13 13 13 13 14 14 14 14 14 14 15 15 14 14 14 15 14 14 13 12 11 11 11 9 7 7 7 7 6 6 6 6 7 8 8 7 6 5 5 6 8 10 11 12 12 11 11 11 10 10 11 12 13 14 14 14 14 15 15 15 15 14 14 15 16 17 16 16 15 14 14 15 15 16 17 19 19 19 19 19
14 14 14 13 13 13 14 14 14 14 15 15 15 16 16 16 16 15 15 15 16 15 14 14 13 12 13 12 11 8 8 9 9 8 7 7 7 8 8 8 9 8 7 7 6 7 10 13 13 13 12 11 11 11 12 12 13 14 15 15 14 14 14 14 14 13 13 14 15 16 16 15 15 15 14 14 15 16 16 17 19 19 20 20 20
16 15 15 14 14 14 14 14 15 16 16 16 16 16 17 17 17 16 16 15 16 15 15 15 14 13 13 13 12 10 9 10 11 10 10 9 10 10 10 9 9 9 8 8 8 8 11 14 15 15 15 14 15 15 14 15 15 15 16 16 16 15 15 15 14 13 13 14 16 16 15 14 14 13 13 14 15 16 17 17 18 19 20 20 20
17 16 16 15 15 15 15 15 16 16 16 16 15 16 17 17 17 17 16 16 16 16 16 15 15 14 15 15 14 12 10 11 12 11 11 12 12 13 13 11 10 10 9 10 10 10 11 14 16 18 18 18 18 18 18 18 18 17 17 18 18 18 17 15 14 14 15 16 16 15 15 14 14 13 13 14 15 16 16 17 18 19 19 19 20
17 17 16 17 17 17 17 17 17 17 17 17 17 17 17 18 18 18 18 18 18 17 17 17 16 16 15 16 15 14 13 14 13 13 12 13 13 14 15 14 13 11 11 11 12 13 13 15 18 19 19 20 21 21 19 19 19 19 20 20 20 19 17 16 16 16 17 18 17 16 15 14 13 13 13 14 15 16 16 17 17 18 18 18 19
19 19 18 19 19 19 19 18 18 18 18 18 19 19 19 20 20 20 20 20 19 19 19 19 18 17 17 17 16 15 15 16 16 15 14 14 14 14 14 15 14 13 13 13 13 14 15 16 18 20 20 21 22 22 21 20 20 22 23 23 22 20 20 20 19 19 19 19 19 18 16 14 14 13 13 14 15 15 16 16 16 16 16 17 17
20 20 20 20 21 21 20 20 20 20 20 20 21 21 22 22 22 23 22 22 21 21 20 20 19 19 19 19 18 17 17 17 17 17 16 16 15 15 15 15 15 15 16 16 15 16 17 17 18 19 20 21 21 22 23 22 22 22 22 21 23 25 25 24 23 22 21 20 20 19 17 16 16 15 13 14 16 16 16 16 16 16 14 14 14
20 19 18 19 20 21 21 22 22 22 22 22 22 23 23 24 24 24 24 24 23 22 21 21 20 20 20 20 20 20 19 18 18 17 17 17 17 18 17 17 17 18 19 18 18 18 18 17 19 20 20 21 22 23 23 23 22 22 19 17 20 25 26 25 25 24 23 22 21 21 19 18 17 17 16 18 19 18 18 18 18 16 14 12 12
20 19 17 17 18 20 22 22 23 23 24 25 25 24 24 24 25 25 25 25 25 24 23 23 22 22 21 21 21 21 21 20 20 19 18 18 18 19 19 19 19 20 21 21 20 20 19 18 19 21 20 21 23 23 23 23 22 22 22 19 20 24 25 25 26 25 23 22 22 22 23 21 20 20 20 22 22 21 21 21 20 19 15 13 11
18 18 18 17 18 20 22 23 24 24 25 27 27 27 26 26 26 26 27 27 27 27 26 26 25 25 24 23 23 22 22 22 22 22 21 20 19 20 20 19 20 21 21 22 22 21 20 19 20 21 19 21 24 24 23 25 25 24 24 22 22 24 24 23 24 25 23 21 21 23 26 26 24 24 24 25 25 23 23 23 23 21 18 15 13
15 15 15 15 16 17 19 21 24 25 26 27 28 29 29 28 28 28 29 29 29 29 29 29 29 28 27 26 26 25 24 24 24 23 23 22 21 21 21 20 20 21 22 23 24 23 22 21 22 22 20 22 26 27 26 28 28 26 25 23 22 22 22 18 19 22 23 22 22 25 29 29 27 26 27 26 26 25 24 24 24 22 20 17 15
15 14 13 12 12 13 14 16 19 22 26 28 28 29 30 30 30 29 30 30 31 31 31 31 31 30 30 29 28 27 27 26 25 25 24 24 23 23 23 22 22 22 23 24 25 25 25 24 23 24 24 25 27 29 29 29 28 27 25 24 23 22 21 18 18 21 25 25 24 25 29 30 28 27 28 27 26 26 25 24 24 22 21 19 17
18 17 16 14 11 10 10 11 13 15 20 25 28 30 30 30 29 29 30 31 31 31 31 31 31 31 30 30 29 29 29 28 27 26 25 25 24 24 23 23 23 24 24 24 25 26 27 27 26 27 28 28 28 29 30 29 27 26 26 26 25 23 22 21 22 25 27 26 25 25 29 31 28 26 28 27 25 26 25 24 23 21 20 18 18
12 15 17 16 14 13 12 12 13 14 14 17 21 25 27 28 27 27 28 29 30 31 31 31 31 31 31 30 30 30 30 29 28 27 26 25 25 24 24 24 25 25 24 25 25 25 26 27 28 29 29 29 30 30 29 28 28 27 27 27 26 24 24 25 26 28 28 27 26 23 25 30 28 24 26 27 25 26 25 23 22 20 19 18 17
5 7 9 11 14 15 15 15 16 17 17 15 16 18 20 21 21 21 22 24 26 28 29 30 30 30 30 30 30 30 30 30 29 28 26 25 24 24 25 25 26 27 27 27 26 26 26 26 27 29 29 29 30 30 29 28 28 28 27 27 26 25 27 27 28 28 27 27 25 19 21 28 27 23 26 28 26 25 25 22 20 20 19 18 17
2 3 4 5 8 10 11 11 12 14 15 15 15 18 18 17 17 17 17 17 18 20 22 23 24 26 26 27 28 28 29 29 29 27 25 24 23 24 26 27 28 28 29 28 28 27 28 27 27 27 27 27 27 27 27 26 26 27 27 27 26 26 26 25 25 28 27 26 25 21 21 27 27 23 25 28 25 24 25 24 21 19 18 17 16
3 2 2 3 5 6 5 5 6 7 6 4 8 15 17 16 16 16 16 16 16 16 16 16 17 17 18 19 21 23 25 25 25 25 24 23 23 24 25 26 27 28 29 28 27 27 28 28 27 27 27 26 25 24 24 23 23 24 26 27 27 26 24 20 19 24 26 27 27 24 21 25 27 24 25 27 24 23 25 26 23 20 18 17 16
10 9 8 8 8 9 11 10 6 5 8 6 1 7 10 11 12 12 14 14 14 15 15 14 13 13 13 13 14 15 18 19 18 18 18 19 20 21 23 24 26 28 29 28 28 28 27 27 27 26 25 25 23 22 22 21 21 21 24 27 27 25 24 21 20 23 26 28 29 24 20 24 27 24 23 23 22 22 24 25 23 20 18 17 16
15 14 13 14 14 14 16 16 12 10 8 4 3 5 5 4 6 7 10 11 12 12 13 13 12 12 12 12 11 11 12 13 13 14 14 15 17 18 20 21 24 27 29 28 27 27 27 26 26 26 26 25 24 23 23 22 22 22 25 27 27 26 26 26 26 21 16 20 24 20 17 22 24 22 19 16 14 15 18 19 20 21 20 20 20
Wind_Direction
128 118 113 111 108 107 109 111 111 112 114 117 121 122 122 116 109 97 79 67 46 26 11 354 333 325 322 326 332 340 347 348 349 337 313 300 295 293 292 290 293 296 292 291 301 307 318 323 327 333 329 326 327 328 323 319 329 337 331 332 332 325 324 322 319 319 320 321 320 320 320 320 321 321 320 320 321 318 316 315 312 310 308 305 304
129 120 116 115 113 114 115 114 112 113 114 117 118 119 120 109 97 81 68 55 38 23 11 353 331 316 311 320 330 337 341 341 343 338 322 308 302 299 297 296 295 300 301 304 307 307 312 315 323 329 324 323 324 324 323 324 334 337 330 327 323 320 320 319 317 318 320 322 324 324 322 322 321 320 319 319 319 317 314 314 311 307 304 302 302
128 122 120 120 120 120 120 118 115 117 117 117 116 115 115 104 92 77 60 46 30 15 4 353 341 330 322 328 332 335 339 338 339 340 336 325 319 315 309 306 300 301 307 315 317 318 321 321 323 323 321 321 320 322 320 322 326 324 318 316 316 316 317 317 318 320 321 322 323 322 321 321 320 319 319 318 317 316 314 312 311 308 303 301 299
127 125 123 124 128 129 129 127 126 127 123 119 117 112 109 97 87 70 46 33 21 5 352 347 349 346 340 339 336 336 338 338 338 341 345 342 337 331 327 326 323 318 317 322 326 329 333 334 334 332 330 326 321 320 318 319 320 317 315 313 313 314 314 316 317 319 319 319 320 322 321 321 323 323 322 320 319 317 314 315 315 313 309 305 303
131 129 130 132 136 140 143 144 143 140 134 127 119 111 101 88 79 56 33 24 11 358 347 340 341 341 339 334 332 334 332 332 333 335 344 349 349 348 346 348 351 349 344 343 344 344 346 345 344 342 341 338 334 332 331 331 330 328 327 324 321 319 316 315 316 318 319 320 322 323 324 326 328 328 326 323 321 318 317 318 316 313 309 305 302
146 148 149 150 154 156 157 160 158 154 150 137 117 110 100 86 77 44 22 14 5 357 347 336 328 326 327 325 324 326 324 323 322 324 334 343 350 356 358 358 360 1 2 2 1 359 358 356 354 352 350 348 347 347 347 346 344 343 342 339 336 333 328 325 324 325 326 328 328 329 329 330 330 328 326 322 319 319 319 317 314 311 307 304 301
166 166 161 162 167 168 175 178 174 172 165 144 118 107 96 79 61 31 12 4 2 359 348 333 322 318 317 318 320 320 320 320 318 319 324 329 339 349 356 1 1 1 2 6 7 6 4 1 359 356 355 356 356 358 358 356 356 354 352 350 347 345 342 339 338 338 337 336 335 334 333 331 329 327 324 320 319 321 320 316 314 311 308 305 302
168 166 160 161 165 169 181 185 183 180 169 152 126 105 89 68 38 15 7 1 359 358 350 337 327 321 316 315 316 315 315 318 321 323 322 321 328 337 346 355 358 359 359 0 2 3 1 358 356 354 354 355 357 358 358 358 358 357 356 354 352 349 347 346 344 342 340 338 336 334 332 330 328 325 324 324 325 324 321 319 317 315 314 311 308
163 164 162 163 170 176 182 183 181 173 156 139 113 95 86 67 29 7 1 0 1 359 350 343 337 330 323 317 313 312 312 316 323 325 323 324 328 332 336 341 348 352 353 354 356 356 357 353 350 349 349 349 350 352 353 355 355 355 353 350 347 345 344 343 342 341 339 338 336 333 330 328 327 328 330 329 329 327 325 326 325 323 323 322 322
161 161 163 168 176 183 188 184 177 163 143 123 109 97 83 59 24 8 360 359 5 1 353 349 345 336 329 323 317 315 315 320 328 330 331 332 333 334 335 336 339 343 345 347 349 350 351 350 346 345 345 344 345 347 350 352 352 351 348 345 342 339 336 335 335 336 336 336 334 331 329 331 333 336 341 339 335 332 332 335 334 331 330 331 332
165 161 163 169 175 184 190 185 175 158 137 121 114 105 89 58 17 9 2 1 4 1 355 350 343 333 325 324 324 324 323 325 329 332 332 333 335 336 336 335 335 338 339 339 340 342 344 343 340 340 342 343 343 346 349 350 350 348 346 344 342 338 334 331 330 330 332 332 331 332 335 342 347 349 351 347 341 338 339 342 341 336 334 333 333
168 166 167 168 172 183 186 181 177 164 138 125 115 107 98 74 30 13 4 4 4 1 356 351 344 338 327 320 316 311 313 319 324 326 326 327 331 331 331 332 331 334 338 338 338 338 339 339 337 337 340 343 347 349 350 349 350 350 349 346 343 340 337 333 330 329 329 332 336 342 351 357 358 356 352 347 343 343 343 344 343 339 338 339 338
177 177 176 172 176 184 185 182 184 177 149 133 119 110 95 77 48 22 5 357 359 360 354 353 359 2 348 326 322 310 303 309 319 324 326 325 325 325 327 328 329 334 336 336 338 339 340 340 339 340 342 345 351 354 354 353 356 356 354 351 347 344 341 337 336 338 341 345 351 358 2 2 359 356 351 348 347 347 346 346 348 348 349 349 347
193 189 185 184 187 190 197 201 198 195 190 174 137 132 98 80 54 28 12 359 358 0 356 355 6 10 353 332 344 355 346 336 336 326 315 313 315 319 323 326 330 335 334 334 338 343 346 345 345 349 351 351 353 355 355 357 1 0 358 359 357 352 350 351 354 358 359 360 3 3 3 1 358 356 353 351 351 353 353 355 355 355 358 0 0
200 197 198 201 204 203 209 215 217 215 214 237 215 172 164 149 43 22 21 13 6 6 7 0 355 358 352 340 350 1 14 5 354 348 318 296 297 310 317 323 330 331 330 333 340 347 350 351 353 358 1 359 357 357 358 1 3 2 2 5 5 2 4 7 8 9 7 4 4 2 1 1 359 359 357 357 359 1 1 359 357 360 6 11 11
203 203 207 212 215 213 216 217 217 219 219 240 261 241 228 221 346 17 24 22 12 8 11 357 347 351 356 353 316 348 22 342 343 360 11 326 288 297 305 311 323 324 323 325 334 345 350 351 351 355 0 1 360 1 2 3 4 4 5 8 7 7 13 16 15 13 8 4 3 1 1 2 2 3 4 5 5 4 2 359 360 4 9 13 12
210 214 216 217 215 213 214 214 213 214 212 228 257 244 230 236 325 32 29 20 8 4 9 359 349 355 2 346 341 358 223 325 332 350 12 13 344 316 308 309 317 316 318 320 327 335 337 341 341 342 348 352 353 355 358 1 5 6 8 9 7 9 17 20 17 12 7 4 4 4 5 6 8 10 11 10 8 5 1 0 2 5 9 11 11
216 220 222 221 215 212 212 215 216 209 208 224 245 231 223 235 332 42 30 18 13 13 15 12 3 4 4 349 330 290 274 323 338 327 359 24 38 25 16 354 335 319 316 318 323 329 327 328 332 335 339 342 343 345 351 359 4 6 8 10 8 11 19 22 20 15 10 9 9 9 10 10 13 15 15 12 8 5 1 1 4 6 9 10 10
215 218 222 221 215 214 213 215 216 208 209 222 235 223 218 224 247 51 39 28 26 29 29 25 30 31 25 21 0 318 281 313 358 308 341 10 20 26 29 16 356 336 331 330 329 329 325 323 325 331 336 338 338 340 347 356 1 1 5 9 10 14 20 24 25 22 19 18 16 15 14 13 14 16 17 13 9 5 2 2 4 6 9 9 9
212 216 223 225 224 224 220 217 213 208 210 216 222 217 214 218 214 69 47 36 30 32 33 30 37 40 39 47 49 50 75 76 27 3 231 303 354 13 17 14 15 357 341 341 340 331 326 323 323 332 340 342 340 339 342 352 357 357 1 6 8 14 19 23 25 25 24 22 20 18 16 14 15 15 16 13 9 5 3 2 4 6 8 9 9
209 212 219 224 227 230 227 219 212 208 211 217 221 217 214 215 211 224 283 36 30 23 21 22 33 39 40 47 58 66 76 66 20 10 133 221 332 335 354 6 17 14 358 342 339 331 324 321 323 333 340 342 342 338 335 341 349 352 356 0 4 10 14 18 21 22 21 19 18 17 16 15 14 15 14 12 9 5 3 2 4 6 7 8 8
204 203 208 217 223 229 229 221 215 212 215 220 221 217 215 213 214 231 242 237 13 357 357 7 23 38 41 43 48 50 50 33 10 9 359 280 303 296 332 349 353 1 11 1 347 335 322 316 321 330 333 337 339 337 336 336 342 349 353 354 356 2 6 8 11 14 14 13 12 11 12 12 12 14 14 11 8 4 2 2 3 5 6 6 7
203 200 202 212 222 230 233 224 220 218 218 218 213 212 215 215 219 229 230 227 260 286 302 332 0 27 40 42 42 41 38 24 9 7 354 301 287 309 328 341 341 351 4 4 356 347 333 319 317 323 328 333 334 337 344 342 344 353 354 351 348 352 357 358 358 1 3 4 3 4 5 7 9 11 12 11 8 4 2 3 3 3 5 5 6
202 203 207 215 222 229 231 226 221 220 217 213 207 210 218 219 224 231 229 233 252 260 265 280 308 351 33 41 39 38 35 24 12 11 6 350 312 310 331 351 350 352 0 2 359 352 343 330 318 317 326 333 336 348 353 348 351 358 353 348 345 346 348 349 349 349 352 355 356 356 356 359 2 6 9 10 8 6 4 4 3 3 4 4 5
204 206 207 212 222 225 225 225 222 222 217 213 213 217 221 224 232 238 236 244 261 263 261 264 276 291 341 32 31 31 29 19 11 13 13 10 358 332 346 2 351 352 3 4 359 353 348 341 328 322 328 336 350 5 1 350 351 350 342 340 339 340 342 342 342 343 345 347 349 350 349 350 355 358 3 6 6 5 5 4 3 2 2 2 3
210 208 206 210 220 221 222 226 225 223 219 218 222 224 226 231 239 243 243 254 264 261 262 265 267 272 275 297 359 10 13 10 10 12 12 13 11 0 2 9 2 357 3 9 9 5 358 350 342 338 343 342 347 359 352 341 340 336 329 327 328 331 335 336 335 336 340 343 344 345 343 342 345 349 354 358 0 1 1 2 3 1 1 0 1
221 215 211 214 219 218 220 225 225 223 221 223 227 226 228 234 241 245 246 254 257 254 260 266 262 257 255 250 260 308 342 354 358 5 11 14 16 16 13 16 16 354 353 11 25 17 5 358 354 356 359 338 327 336 335 333 331 326 321 319 321 324 327 328 326 327 334 338 338 339 339 338 337 340 346 350 352 353 354 356 359 359 359 358 359
238 227 221 222 226 226 225 225 224 225 226 228 227 224 228 235 241 244 245 248 250 250 257 263 255 243 241 242 244 259 297 333 338 345 4 11 11 9 6 14 26 354 339 353 9 11 9 6 6 15 17 358 340 337 336 334 330 327 325 321 320 320 320 319 317 319 326 330 332 333 334 334 332 333 338 342 345 344 346 348 352 355 355 356 357
245 239 235 234 236 235 234 231 228 228 229 232 231 227 230 235 239 243 245 246 248 250 256 258 254 247 244 245 243 248 267 306 323 327 344 359 2 359 354 1 11 349 322 329 327 331 355 360 1 6 7 0 349 341 337 332 329 330 330 329 326 321 316 313 314 319 321 322 324 326 328 330 329 328 330 335 338 337 338 341 344 348 350 352 353
244 243 243 244 245 243 241 237 234 231 230 233 235 236 237 237 240 244 245 245 248 251 257 261 261 261 258 256 252 249 253 270 297 308 313 335 349 354 354 348 333 310 256 248 293 307 332 341 339 335 339 343 343 340 339 335 330 328 330 331 330 326 321 318 318 318 318 316 318 320 323 325 324 324 324 326 330 331 331 332 335 341 344 346 349
243 243 245 249 250 247 246 245 240 235 233 235 238 242 244 244 245 248 249 250 251 254 260 264 266 266 264 263 261 257 255 256 263 271 284 304 315 326 334 333 327 303 264 238 233 297 314 322 326 330 334 336 335 333 333 335 333 332 333 332 329 323 318 316 315 315 317 317 317 321 324 324 322 320 320 319 321 323 324 325 327 332 337 340 343
243 244 246 249 250 249 252 253 250 244 241 242 244 246 248 249 251 253 255 255 255 257 260 263 264 263 262 264 267 266 262 255 257 264 270 284 297 302 305 305 307 297 275 249 241 282 304 313 319 324 329 330 330 332 332 333 334 334 333 332 327 321 314 313 314 316 320 322 322 325 327 325 322 319 317 315 314 316 317 318 321 325 329 333 337
245 245 247 249 251 253 255 258 258 256 254 253 254 253 252 252 254 258 259 257 257 257 259 259 259 257 260 266 270 272 269 263 262 268 269 274 286 295 295 291 290 288 283 273 264 282 302 313 317 321 324 323 321 325 327 326 327 327 326 326 325 322 319 318 318 320 324 326 326 326 324 323 323 321 318 316 313 312 312 314 317 320 323 326 330
247 249 251 252 255 258 259 261 262 263 265 265 264 261 257 256 257 260 262 260 258 258 259 259 258 256 258 264 268 271 272 267 264 268 275 277 281 290 296 291 286 283 283 283 277 281 297 308 314 316 320 320 314 314 317 316 319 320 319 320 320 321 323 321 319 319 322 325 327 327 322 318 318 320 320 318 314 313 312 311 314 317 320 322 324
249 251 254 255 257 260 263 265 264 265 268 270 268 264 261 261 262 264 265 265 262 260 261 262 263 262 260 262 266 270 272 269 264 266 273 279 282 286 294 296 290 286 286 287 284 284 294 304 308 310 313 314 310 310 312 311 312 313 313 316 318 318 321 321 319 316 317 321 322 323 321 316 310 310 314 314 313 314 314 311 311 313 316 319 320
251 255 258 258 257 258 261 265 266 264 265 266 266 264 262 262 264 266 267 268 267 265 264 266 268 268 267 266 267 271 275 273 270 270 272 277 280 281 284 289 289 286 288 291 291 291 291 295 302 307 310 309 307 309 311 310 310 310 310 313 316 317 320 322 321 319 321 324 322 318 318 316 309 304 305 308 311 313 314 312 310 311 313 315 316
253 257 260 261 262 260 259 261 263 263 263 264 266 265 265 264 265 267 268 269 270 270 270 271 272 272 272 271 272 274 276 275 274 276 279 282 284 282 280 281 283 284 286 289 293 294 290 290 297 305 308 308 308 310 314 314 314 315 315 316 318 320 324 327 327 327 327 328 326 321 316 315 311 307 305 306 308 311 312 312 310 310 312 312 312
253 257 261 264 266 266 264 263 264 265 266 267 268 268 268 267 266 267 268 269 270 271 272 273 274 275 274 274 277 278 277 277 277 278 282 286 289 287 282 280 281 284 286 287 290 292 290 290 293 298 304 307 308 310 314 315 315 315 317 320 323 325 328 330 332 334 335 332 330 327 321 317 314 310 306 306 306 310 314 315 311 309 309 309 309
252 255 259 263 266 268 269 269 269 270 270 270 271 271 270 269 268 267 268 268 269 269 269 271 272 274 275 276 277 278 278 279 280 281 283 285 287 287 285 285 286 289 290 291 291 291 290 290 291 294 298 303 305 306 310 311 310 310 312 315 320 323 325 327 328 331 335 335 333 330 323 318 314 309 304 304 306 310 316 318 317 313 310 308 306
253 254 258 262 265 268 273 275 275 274 273 271 271 271 271 272 270 269 269 269 270 269 268 268 270 272 274 276 277 278 278 279 281 283 284 285 286 286 286 288 290 293 295 296 296 294 292 291 291 294 296 298 302 304 307 309 307 308 311 307 306 312 317 320 321 323 326 329 331 330 325 319 313 307 303 303 304 307 311 315 320 320 316 309 304
255 257 261 265 269 273 277 280 279 277 274 272 271 271 271 272 271 271 270 270 270 271 270 270 271 272 273 274 275 277 278 280 282 283 283 283 284 285 287 289 290 293 295 296 296 296 295 293 293 295 296 296 299 302 304 307 308 308 309 303 299 306 310 311 314 318 320 321 323 324 323 321 313 306 303 300 300 303 305 308 315 320 318 311 306
251 253 256 259 265 273 279 282 282 280 278 276 274 273 272 272 272 271 271 270 270 270 272 273 274 275 275 275 276 278 278 279 280 281 281 282 281 281 284 287 288 290 291 291 292 293 292 291 292 294 293 291 297 300 299 305 308 306 305 302 300 305 307 306 310 316 318 317 316 315 317 318 313 308 305 301 299 301 302 304 310 315 314 310 308
242 243 246 247 251 259 271 278 281 280 279 278 277 277 275 273 272 271 271 271 271 270 270 271 273 276 277 279 280 281 281 281 281 281 282 281 281 280 280 281 282 284 285 285 287 288 286 284 287 289 286 285 294 300 300 303 306 304 304 304 300 300 301 298 300 308 315 316 312 308 310 313 312 309 307 304 302 301 302 304 307 310 309 306 303
235 233 235 238 241 247 257 270 278 280 280 279 279 279 278 276 273 271 270 271 271 271 272 272 274 276 277 279 281 282 283 284 284 284 284 284 284 283 283 282 281 279 279 278 279 281 281 279 281 283 282 282 288 295 298 300 302 303 302 302 299 295 293 289 285 293 306 312 307 301 303 308 309 307 306 308 308 307 307 307 307 308 306 302 298
238 236 234 234 240 251 256 266 278 284 285 284 282 280 279 278 276 272 270 270 270 271 273 274 275 276 277 278 280 282 285 286 286 286 286 288 289 289 288 288 286 284 281 278 276 276 277 276 274 277 281 282 282 290 298 298 297 297 297 297 298 295 291 288 287 292 302 306 301 296 296 300 304 303 304 309 314 313 312 311 310 309 305 298 293
245 243 242 241 245 255 260 265 273 279 286 295 295 289 282 278 277 274 271 270 269 269 271 273 274 276 278 278 280 282 286 287 287 287 288 289 291 293 293 292 292 293 291 288 285 281 278 276 272 274 281 283 282 290 299 299 293 292 293 293 295 295 292 291 291 294 298 299 296 292 289 295 300 299 300 309 316 315 314 313 311 310 305 300 293
255 254 253 250 249 251 255 263 271 274 275 282 299 305 296 284 278 276 273 270 269 270 270 272 273 274 276 278 279 281 285 286 288 288 289 291 293 294 295 295 296 298 297 297 296 293 289 285 280 280 284 288 289 293 298 299 295 295 295 293 292 292 292 291 290 291 294 297 296 284 275 288 296 293 296 308 315 314 314 313 309 307 305 301 295
270 282 283 275 269 266 266 271 279 285 283 278 281 294 297 287 276 273 274 273 274 276 276 277 277 277 278 278 278 280 283 285 288 289 290 292 293 293 295 296 297 299 299 299 300 299 296 294 291 290 291 293 295 296 297 298 296 297 296 291 291 292 289 287 287 289 294 299 299 285 271 283 293 291 295 305 310 310 312 311 309 309 307 302 295
72 25 341 321 318 324 333 317 287 297 334 330 266 268 275 278 275 271 270 272 275 278 282 285 286 285 284 283 282 282 283 285 289 291 292 292 292 291 293 294 296 297 295 294 295 296 297 296 296 294 294 295 296 296 297 297 295 296 291 285 289 292 286 280 281 286 291 295 297 290 276 280 290 292 293 300 303 304 308 309 309 311 309 304 297
71 59 50 43 36 33 32 22 360 15 49 65 228 262 269 271 274 273 270 271 272 276 280 284 286 287 287 288 289 288 288 290 293 294 293 291 289 289 290 291 292 291 287 286 290 292 294 296 297 295 294 295 295 294 295 294 293 292 285 283 289 288 278 271 272 278 285 288 291 289 275 277 290 293 292 297 299 298 302 306 308 310 310 308 305
67 58 49 46 46 48 43 32 23 28 35 28 351 0 348 299 282 275 269 269 270 273 278 280 280 281 282 285 290 292 292 294 293 290 287 284 282 283 285 287 286 285 285 289 294 295 295 295 296 295 294 294 294 293 292 291 290 288 285 286 288 282 273 270 271 273 277 283 288 288 273 276 289 292 289 295 297 296 300 302 303 304 303 303 303
Height
873 873 874 875 876 877 877 878 879 880 881 882 882 883 884 884 884 885 885 885 885 885 885 886 886 886 886 886 886 886 887 887 887 887 887 887 887 887 887 887 887 887 887 887 887 887 887 887 887 886 886 886 885 885 884 884 883 883 883 882 882 882 881 881 880 880 879 879 878 878 877 876 876 875 874 873 873 872 872 871 871 870 870 869 869
874 874 875 876 877 878 879 880 881 882 882 883 884 884 885 885 885 885 886 886 886 886 886 886 886 886 887 887 887 887 887 887 888 887 887 888 888 888 888 888 888 888 887 887 887 888 887 887 887 887 886 886 885 885 884 884 883 883 882 882 882 881 881 880 880 879 879 878 878 877 876 876 875 874 873 873 872 871 871 870 870 869 869 868 868
875 876 877 878 879 880 880 881 882 883 884 884 885 885 886 886 886 886 886 886 887 887 887 887 887 887 887 887 887 887 888 888 888 888 888 888 888 888 888 888 888 888 888 888 888 887 887 887 887 886 886 885 885 884 884 883 883 883 882 882 881 881 880 880 879 879 878 878 877 877 876 875 874 873 873 872 871 870 870 869 869 868 867 867 866
876 877 878 879 880 881 882 883 883 884 885 885 886 886 886 887 887 887 887 887 887 887 887 887 887 887 887 888 888 888 888 888 888 888 888 888 888 888 888 888 888 888 888 888 888 888 887 887 886 886 885 885 884 884 884 883 883 882 882 881 880 880 879 879 879 878 878 877 877 876 875 874 873 873 872 871 870 869 868 868 867 867 866 865 865
877 878 879 880 881 882 883 883 884 885 886 886 886 887 887 887 887 887 888 888 888 888 888 888 888 888 888 888 888 888 888 888 888 888 888 888 888 888 888 888 888 888 888 888 888 887 887 887 886 886 885 885 884 884 883 883 882 882 881 880 880 879 879 878 878 877 877 876 876 875 874 873 873 872 871 870 869 868 867 867 866 865 865 864 864
878 879 880 881 882 883 884 884 885 886 886 887 887 887 887 888 888 888 888 888 889 889 889 888 888 888 888 889 888 889 888 888 888 888 888 888 888 888 888 888 888 888 888 888 888 887 887 887 886 886 885 885 884 884 883 883 882 881 881 880 880 879 878 878 877 877 876 875 875 874 874 873 872 871 870 869 868 867 867 866 865 864 863 863 862
879 880 881 882 883 884 885 885 886 886 887 887 888 888 888 888 888 888 889 889 889 889 889 889 889 889 888 888 888 888 888 888 888 888 888 888 888 888 888 888 888 888 888 888 888 888 887 887 886 886 885 885 884 884 883 883 882 881 881 880 880 879 878 877 877 876 875 875 874 873 873 872 871 870 869 868 867 867 866 865 864 863 862 861 860
880 881 882 882 883 884 885 886 887 887 888 888 888 888 888 888 889 889 889 889 890 890 890 889 889 889 888 888 888 888 888 888 887 887 888 888 888 888 888 888 888 888 888 888 888 888 887 887 887 886 886 885 885 884 884 883 882 882 881 880 879 879 878 877 876 876 875 874 874 873 872 871 871 870 869 868 867 866 865 864 862 861 860 859 859
881 882 882 883 884 885 886 887 888 888 888 888 889 889 889 889 889 890 890 890 890 890 890 889 889 889 888 888 888 888 887 887 887 887 887 887 888 888 888 888 888 888 888 888 888 888 887 887 887 886 886 885 884 884 884 883 882 882 881 880 879 878 877 877 876 875 874 874 873 872 872 871 870 869 868 867 866 865 864 862 861 860 859 858 857
882 883 883 884 885 886 887 888 888 888 889 889 889 889 889 889 890 890 890 890 890 890 890 890 889 889 888 888 888 887 887 887 887 887 887 887 887 888 888 888 888 888 888 888 888 887 887 887 887 886 885 885 884 884 883 883 882 881 881 880 879 878 877 876 875 874 874 873 872 871 870 870 869 868 867 866 865 864 863 862 861 860 859 858 857
882 883 884 885 885 887 887 888 889 889 889 889 889 889 889 890 890 891 891 891 891 891 890 890 889 889 889 888 888 887 887 887 887 886 886 887 887 887 887 887 887 887 887 887 887 887 887 887 886 886 885 885 884 884 883 883 882 881 880 879 878 877 876 875 874 873 873 872 871 870 870 869 868 867 866 865 864 863 862 861 860 859 858 857 856
883 884 884 885 886 887 888 888 889 889 889 890 890 890 890 890 890 891 891 891 891 891 891 890 890 889 888 888 888 887 886 886 886 886 886 886 886 887 886 887 887 886 887 886 886 886 886 886 886 885 885 884 884 883 883 882 882 881 880 879 877 876 875 874 873 872 872 871 870 870 869 868 867 867 866 864 863 862 861 860 859 858 857 856 855
883 884 885 886 887 887 888 889 889 889 890 890 890 890 890 890 890 891 891 891 891 891 891 891 890 889 889 888 887 886 886 886 886 886 886 886 886 886 886 886 886 886 886 886 886 886 886 886 885 885 885 884 884 883 883 882 882 881 880 878 877 875 874 873 872 872 871 871 870 869 869 868 867 866 865 864 862 861 860 859 858 857 856 855 854
883 884 885 886 887 888 888 889 889 890 890 890 890 890 890 891 891 891 891 892 892 892 892 891 891 890 889 888 887 886 885 885 885 885 885 885 885 885 885 885 885 885 885 885 885 885 885 885 885 885 884 884 884 883 883 882 882 881 879 878 876 875 874 873 872 872 871 871 870 869 869 868 867 866 864 863 862 861 859 858 858 856 855 854 853
883 884 885 886 887 888 888 889 889 890 890 890 890 891 891 891 891 892 892 892 892 892 892 891 891 890 890 890 889 888 887 885 885 884 884 884 884 885 885 885 885 885 885 885 885 885 885 885 885 885 885 884 884 884 883 882 881 880 879 878 877 875 874 873 873 872 871 871 870 869 868 867 866 865 864 862 861 860 859 858 856 855 854 853 852
883 884 884 885 886 887 888 888 889 890 890 890 891 891 892 892 892 892 892 892 892 892 892 892 891 891 891 891 891 891 892 888 885 884 883 883 883 884 884 884 884 885 885 884 884 884 885 885 885 885 885 884 884 884 883 882 881 880 879 878 877 876 874 874 873 872 872 871 870 869 868 867 866 865 863 862 861 859 858 857 855 854 853 852 851
883 884 884 885 886 887 887 888 889 889 890 891 891 892 892 893 893 893 893 893 893 892 892 892 892 891 891 892 893 894 894 890 887 885 883 883 883 883 883 884 884 884 884 884 884 884 884 884 884 884 884 884 884 884 883 882 881 880 880 879 878 876 875 874 873 873 872 871 870 869 868 867 865 864 863 862 860 859 857 856 855 853 852 851 850
883 884 884 885 885 886 887 887 888 889 890 890 891 892 892 893 893 893 893 893 893 893 892 892 892 892 891 892 893 894 892 890 890 889 885 883 883 883 883 883 883 883 883 884 884 884 884 884 884 884 884 884 884 883 883 882 881 881 880 879 878 877 876 875 874 873 872 871 870 869 868 867 865 864 863 861 860 858 857 856 854 853 852 850 849
882 883 884 884 885 886 886 887 888 889 889 890 891 892 893 893 893 893 893 894 894 893 893 892 892 892 892 891 891 891 891 890 891 891 889 886 884 883 883 882 883 883 883 883 883 883 883 883 883 883 883 883 883 883 883 882 882 881 880 879 878 877 876 875 874 874 873 871 870 869 868 867 865 864 863 861 860 858 857 855 854 853 851 850 848
881 882 883 884 885 885 886 887 888 888 889 890 891 892 892 893 893 894 894 894 894 894 893 893 893 892 892 892 891 890 890 890 890 890 891 890 886 883 883 882 882 882 883 883 883 883 883 883 883 883 883 883 883 883 882 882 882 881 880 879 879 878 877 876 875 874 873 872 871 870 868 867 865 864 863 861 860 858 857 855 854 853 851 850 848
881 882 882 884 885 886 886 887 888 888 889 890 891 891 892 893 893 894 894 894 894 894 894 894 894 893 893 892 891 891 890 890 890 889 889 890 889 885 883 883 882 882 882 882 882 882 882 882 882 882 882 882 882 882 882 882 881 881 880 879 879 878 877 876 876 875 874 873 871 870 869 867 866 864 863 861 860 858 857 855 854 852 851 849 848
880 881 882 883 884 885 886 887 887 888 889 889 890 891 892 892 893 893 894 894 894 894 894 894 894 894 893 893 892 891 891 890 890 890 889 889 889 887 885 884 883 883 882 882 882 882 882 882 882 882 882 882 882 882 882 882 881 881 880 880 879 878 877 876 876 875 874 873 872 871 869 868 866 865 863 862 860 859 857 855 854 852 851 849 848
880 881 882 883 884 885 885 886 887 887 888 889 890 891 891 892 893 893 893 894 894 894 894 894 894 894 893 893 892 892 892 891 891 890 889 889 888 887 886 885 884 883 883 882 882 882 882 882 882 882 882 882 882 881 881 881 881 881 880 879 879 878 877 876 876 875 874 873 872 871 869 868 867 865 864 862 861 859 857 856 854 853 851 850 848
879 880 881 882 883 884 885 885 886 887 888 889 890 890 891 892 892 893 893 893 893 894 894 894 894 894 894 893 893 892 892 892 891 890 889 889 888 888 886 885 885 884 883 883 882 882 882 882 881 881 881 881 881 881 881 881 881 880 880 879 879 878 877 876 876 875 874 873 872 871 870 868 867 866 864 863 861 859 858 856 855 853 852 850 848
878 879 881 882 883 883 884 885 886 887 888 888 889 890 891 891 891 892 892 893 893 893 893 893 893 893 893 893 893 893 892 892 891 891 890 889 888 888 887 886 885 885 884 883 883 882 882 882 881 881 881 881 881 881 881 881 881 880 880 879 878 878 877 876 876 875 874 873 872 871 870 869 867 866 864 863 861 860 858 857 855 854 852 850 848
878 879 880 881 882 883 884 885 885 886 887 888 889 890 890 890 891 891 892 892 892 892 893 892 892 893 893 893 893 892 892 892 891 890 890 889 888 888 887 886 886 885 885 885 884 883 882 882 882 881 881 881 881 881 881 881 880 880 879 879 878 878 877 876 876 875 874 872 871 870 869 868 867 866 865 863 862 860 859 857 856 854 852 851 849
877 878 880 881 881 882 883 884 885 886 887 887 888 889 889 890 890 890 891 891 891 892 892 892 892 892 892 892 892 892 892 891 891 890 890 889 889 888 888 887 887 887 885 885 884 884 883 883 882 882 881 881 881 881 881 880 880 879 879 878 878 877 877 876 875 874 873 872 871 870 869 868 867 866 865 863 862 860 859 857 856 854 853 851 849
877 878 879 880 881 882 882 883 884 885 886 887 887 888 888 889 889 890 890 890 890 891 891 891 891 891 891 891 891 891 891 890 890 889 889 889 888 888 888 888 889 890 888 886 885 884 884 883 883 882 882 882 881 881 881 880 880 879 878 878 877 876 876 875 874 873 872 871 870 869 868 867 866 865 864 863 862 860 859 857 856 855 853 851 849
876 877 878 879 880 881 882 883 883 884 885 886 887 887 888 888 888 889 889 889 890 890 890 890 890 890 890 890 890 890 890 889 889 889 888 888 888 888 888 887 888 889 890 890 887 885 884 884 883 883 882 882 881 881 881 880 879 878 878 877 876 876 875 874 873 872 871 870 869 868 867 867 865 865 864 862 861 860 858 857 856 855 853 851 849
875 876 878 879 880 881 881 882 883 884 884 885 886 887 887 888 888 888 889 889 889 889 889 889 889 889 889 889 889 889 889 889 888 888 888 888 888 887 888 887 887 887 888 890 888 885 884 884 883 883 882 881 881 881 880 879 879 878 877 876 876 875 874 873 872 871 870 869 868 867 866 865 864 863 863 862 861 859 858 856 855 854 853 851 849
874 875 877 877 879 880 881 882 882 883 884 885 886 886 886 887 887 888 888 888 888 888 888 888 888 888 888 888 888 888 888 888 888 888 887 887 887 887 887 887 887 887 886 887 887 885 884 883 883 882 881 881 880 880 879 879 878 877 877 876 875 874 873 872 871 870 869 868 867 866 865 864 863 862 861 861 860 858 857 856 855 853 852 851 849
873 874 875 876 878 879 880 881 882 883 884 884 885 885 886 886 886 887 887 887 887 887 887 887 887 887 887 887 887 887 887 887 887 887 886 886 886 886 886 886 886 886 885 885 885 884 883 882 882 881 880 880 879 879 878 878 877 876 876 875 874 873 871 870 869 868 867 866 865 865 864 863 862 861 860 859 858 857 856 855 854 853 851 850 849
872 873 874 875 876 878 879 880 881 882 883 884 884 885 885 885 886 886 886 886 886 886 886 886 885 886 885 885 886 886 886 886 886 886 886 886 886 885 885 885 885 885 884 884 883 882 881 881 881 880 879 879 878 877 877 876 876 875 874 874 873 871 870 869 868 867 866 865 864 863 862 861 860 859 858 858 857 856 855 854 853 852 851 849 848
871 872 873 873 875 876 877 878 880 880 881 882 883 884 884 884 885 885 885 885 885 885 885 884 884 885 884 884 884 884 885 885 884 885 885 885 885 885 885 884 884 884 883 883 882 881 880 880 879 879 878 878 877 876 876 875 874 873 872 872 871 870 869 868 866 865 865 864 863 862 860 859 858 858 857 856 855 854 854 853 852 850 849 848 847
870 871 872 872 873 875 876 877 878 879 880 881 882 882 883 883 883 884 884 884 884 884 883 883 883 884 884 883 883 883 884 883 883 884 884 884 884 884 883 883 883 883 882 882 881 881 879 879 878 878 877 877 876 875 875 874 873 872 871 870 869 868 867 866 865 864 863 862 861 860 859 857 857 856 855 854 853 853 852 851 850 849 848 847 846
869 870 871 871 872 873 874 875 876 877 878 879 880 881 881 882 882 882 883 883 883 882 882 882 882 883 882 882 882 883 883 882 882 883 883 883 883 882 882 882 882 881 881 881 880 880 879 878 877 877 876 876 875 874 874 873 872 871 870 869 868 867 866 865 864 862 861 860 859 858 857 856 855 854 853 852 852 851 850 850 849 848 847 846 845
867 868 869 870 871 871 872 873 874 875 876 877 878 879 879 880 880 880 881 881 881 881 881 881 881 881 881 881 881 881 882 881 881 881 882 882 881 881 881 880 880 880 880 879 879 879 878 877 876 876 875 875 874 873 873 872 871 870 869 868 867 866 865 864 862 861 860 859 857 856 855 854 853 852 851 851 850 849 849 848 847 846 845 844 843
865 866 867 868 869 869 870 871 872 873 874 875 876 876 877 878 878 879 879 879 879 879 879 879 879 880 879 879 880 880 880 880 880 880 880 880 880 880 879 879 879 879 878 878 878 877 877 876 875 874 874 873 872 871 871 871 870 869 867 866 865 865 864 862 861 860 859 857 856 855 854 853 852 851 850 849 848 848 847 846 845 844 843 842 841
863 864 865 866 867 867 868 869 870 871 872 873 874 874 875 876 876 877 877 877 877 877 877 877 877 878 878 878 878 878 878 878 878 879 879 879 879 879 878 878 878 878 877 877 877 876 875 875 874 873 872 872 871 870 869 869 868 867 867 865 864 863 862 861 860 859 858 856 855 854 853 852 851 850 849 848 847 846 845 844 843 842 842 841 840
861 861 862 863 864 865 866 867 867 869 870 870 871 872 873 874 874 875 875 875 875 875 875 875 876 876 876 876 876 877 877 877 877 877 877 877 877 877 877 877 877 876 876 876 875 875 874 874 873 872 871 870 869 868 867 867 866 865 865 865 863 861 860 860 858 857 856 855 854 853 852 851 849 849 848 846 845 845 844 843 842 841 840 839 838
859 860 860 861 862 863 864 865 865 866 867 868 869 870 871 872 872 873 873 873 873 874 874 874 874 874 874 874 874 874 875 875 875 875 875 876 876 875 875 875 875 875 874 874 874 873 873 873 872 871 870 869 868 867 866 865 865 864 863 863 861 859 858 857 856 856 855 853 852 851 850 849 848 847 846 845 844 843 843 842 841 840 839 838 837
858 858 859 859 860 861 862 863 864 864 865 866 867 868 869 870 870 871 871 871 872 872 872 872 872 872 872 872 872 872 872 873 873 873 873 874 874 873 873 873 873 873 873 872 872 872 872 871 870 870 869 868 866 866 865 864 863 862 861 861 859 858 857 856 854 853 853 852 850 848 846 846 845 844 843 842 841 841 840 840 839 838 837 837 836
856 856 856 857 857 858 860 861 862 862 863 863 864 866 866 867 868 869 869 869 869 870 870 870 870 869 869 870 870 870 870 870 870 870 871 871 871 871 871 871 871 871 871 870 870 869 869 869 868 868 867 866 864 864 863 862 861 860 860 859 858 857 856 855 853 851 851 850 848 845 843 843 843 841 840 839 838 838 838 837 837 836 836 835 834
854 854 854 854 855 855 856 858 859 860 861 862 862 864 864 865 866 867 867 867 867 867 867 867 867 867 867 867 867 867 867 867 868 868 868 868 868 868 869 869 869 869 869 868 868 867 867 866 866 865 865 864 862 862 861 860 859 858 858 857 856 855 854 854 852 850 849 849 847 844 840 840 840 839 837 836 835 835 835 835 834 834 833 833 832
852 852 852 852 852 853 854 855 856 857 859 860 861 862 863 863 864 864 865 865 865 865 865 865 865 865 865 865 865 865 865 865 865 865 865 865 865 865 866 866 866 866 866 866 865 865 865 864 863 862 861 861 860 859 859 858 857 856 855 854 854 853 852 851 850 848 847 847 845 842 838 836 837 836 834 833 833 833 832 832 831 831 830 830 830
850 850 850 850 850 851 851 852 853 854 856 858 860 861 862 862 862 862 862 862 862 862 862 863 863 863 863 863 862 862 862 862 863 863 863 863 863 863 863 862 862 862 862 862 862 862 862 862 861 859 859 858 857 856 856 856 855 854 853 852 852 851 850 848 847 846 845 844 843 841 836 833 834 834 832 831 831 831 830 829 828 828 828 827 827
849 848 848 848 848 848 848 849 851 852 854 856 858 861 862 861 860 860 859 859 859 859 860 860 860 860 860 861 860 860 860 860 860 860 861 861 861 860 860 859 858 858 858 858 858 858 858 858 857 856 856 855 855 854 853 853 852 851 851 850 849 849 847 845 844 843 842 841 841 840 834 830 832 832 830 829 830 828 827 827 826 826 825 825 825
848 847 847 847 847 846 846 847 848 851 853 854 856 860 862 861 859 858 858 857 857 857 857 857 858 858 858 858 858 858 857 857 857 858 859 859 858 857 856 856 855 854 854 854 854 854 854 853 853 852 852 852 852 851 851 851 850 849 848 847 847 846 844 842 841 839 839 838 838 838 833 829 830 830 828 827 827 826 825 824 824 824 823 823 822
847 847 847 847 847 846 846 846 847 850 853 855 856 859 861 860 858 857 856 855 855 854 854 855 855 855 856 856 855 855 855 854 855 856 856 856 856 855 854 853 852 851 850 850 850 850 850 849 849 849 848 848 848 848 848 848 848 847 846 845 844 844 842 840 838 836 836 836 835 835 832 828 827 828 826 825 825 824 822 821 821 822 821 821 821
846 845 844 844 844 844 844 846 848 852 854 856 857 858 858 857 857 856 855 854 853 852 852 852 852 853 853 853 853 853 852 852 852 853 854 853 852 852 851 850 849 848 847 847 847 847 846 846 845 845 845 845 844 844 844 845 845 845 843 842 841 841 840 838 836 834 833 831 831 832 830 826 825 826 824 822 821 820 820 819 818 819 819 819 819
844 844 844 843 842 843 845 848 852 855 856 857 858 858 857 856 855 854 853 852 851 850 850 850 850 850 850 850 850 850 850 850 850 850 850 850 849 849 848 848 847 845 845 845 845 844 843 842 842 841 841 841 841 840 840 841 841 841 840 838 838 838 836 835 834 833 831 828 827 829 828 824 823 823 823 821 818 816 816 817 816 816 816 816 816